SKYSAT-C6 (42992 NORAD) Tracking and Keplerian Element Data

This shows tracking and keplerian element data for the satellite.

Feedback or suggestion? Click here.




ElementValue
Catalog42992
NameSKYSAT-C6
Epoch Orbit5835
Epoch Day323.82308853
Epoch Year2018
RAAN75.7541
Inclination97.4148
Eccentricity0.0012082
Argument of Perigee3.1343
Mean Anonmoly114.516
Mean Motion15.21535206
Decay Rate7.74E-06
L11 42992U 17068F 18323.82308853 .00000774 00000-0 37404-4 0 9992
L22 42992 97.4148 75.7541 0012082 3.1343 114.5160 15.21535206 58356

Live tracking and technical data element details for SKYSAT-C6 (NORAD 42992). SKYSAT-C6 can be tracked NOW for your location showing map with azimuth and elevation plus other details from your city location.

Track the satellite on the map from your city or location and see movement details for azimuth, elevation, latitude, longitude, range, height, and movement on the map or in text.







IsCatalogInMostPopularTable: catalog: 42992, numindb: 151
Update: records affected: 1



GetName: 42992 SKYSAT-C6

Hit Count: updated at: Wed, 21 Nov 2018 05:45:41 GMT